This is the latest recevied weather packets stored in our database for station/object WC4PEM-9. If no packets are shown the sender has not sent any weather packets the latest 10 day(s).
| Time | Temp. | Humidity | Pressure | Rain* | Wind** | Luminosity | Snow |
|---|---|---|---|---|---|---|---|
| 1777993884 | 27.22° C | 58% | 1016.1 hPa | 0 mm | - | - | - |
| 1777993708 | 27.22° C | 58% | 1016.1 hPa | 0 mm | - | - | - |
| 1777993408 | 27.22° C | 57% | 1016.2 hPa | 0 mm | - | - | - |
| 1777993108 | 27.22° C | 61% | 1015.8 hPa | 0 mm | - | - | - |
| 1777992808 | 27.22° C | 60% | 1016.1 hPa | 0 mm | - | - | - |
| 1777992508 | 27.22° C | 62% | 1015.7 hPa | 0 mm | - | - | - |
| 1777992357 | 26.67° C | 64% | 1015.9 hPa | 0 mm | - | - | - |
| 1777992208 | 26.67° C | 64% | 1015.9 hPa | 0 mm | - | - | - |
| 1777991908 | 26.67° C | 65% | 1015.9 hPa | 0 mm | - | - | - |
| 1777991757 | 26.67° C | 65% | 1016 hPa | 0 mm | - | - | - |
| 1777991608 | 26.67° C | 65% | 1016 hPa | 0 mm | - | - | - |
| 1777991308 | 26.67° C | 64% | 1015.9 hPa | 0 mm | - | - | - |
| 1777991008 | 26.67° C | 66% | 1015.9 hPa | 0 mm | - | - | - |
| 1777990708 | 26.11° C | 67% | 1015.9 hPa | 0 mm | - | - | - |
| 1777990504 | 26.11° C | 69% | 1015.8 hPa | 0 mm | - | - | - |
| 1777990408 | 26.11° C | 69% | 1015.8 hPa | 0 mm | - | - | - |
| 1777989808 | 25.56° C | 70% | 1015.2 hPa | 0 mm | - | - | - |
| 1777989730 | 25.56° C | 70% | 1015.5 hPa | 0 mm | - | - | - |
| 1777989508 | 25.56° C | 70% | 1015.5 hPa | 0 mm | - | - | - |
| 1777989208 | 25.56° C | 72% | 1015.4 hPa | 0 mm | - | - | - |
| 1777988908 | 25° C | 72% | 1015.7 hPa | 0 mm | - | - | - |
| 1777988608 | 25° C | 72% | 1015.7 hPa | 0 mm | - | - | - |
| 1777988491 | 25° C | 73% | 1015.9 hPa | 0 mm | - | - | - |
| 1777988308 | 25° C | 73% | 1015.9 hPa | 0 mm | - | - | - |
| 1777988008 | 24.44° C | 76% | 1015.9 hPa | 0 mm | - | - | - |
* Rain latest hour (hover to see other rain measurements)
** Current wind speed in m/s (hover to see current wind gust speed)